Preview of NWS' New Version of Forecast
This preview is not operational and should not be used for support decisions.

Regional Weather Roundup (RWR)

Issued by National Weather Service (NWS)

                            
000
ASUS43 KLSX 220657
RWRMO 

WEATHER SUMMARY FOR MISSOURI
NATIONAL WEATHER SERVICE SPRINGFIELD MO
200 AM CDT MON APR 22 2019

NOTE: "FAIR" INDICATES FEW OR NO CLOUDS BELOW 12,000 FEET WITH NO
       SIGNIFICANT WEATHER AND/OR OBSTRUCTIONS TO VISIBILITY.
       CURRENT SKY AND/OR WEATHER CONDITIONS ARE NOT AVAILABLE FOR
       CHILLICOTHE AND FARMINGTON.

MOZ001>031-035>038-043-044-053-054-220800-
...NORTHERN AND WESTERN MISSOURI...
  
CITY           SKY/WX    TMP DP  RH WIND       PRES   REMARKS
KANSAS CTY INT MOCLDY    71  50  47 S18G26    29.87R                  
LEE'S SUMMIT   MOCLDY    70  50  49 S15       29.90R                  
ST JOSEPH      CLOUDY    71  51  49 S12       29.86R                  
CHILLICOTHE      N/A     69  48  47 S7        29.92R                  
     
$$
MOZ066>068-077>081-088>096-101>105-220800-
...SOUTHWEST MISSOURI...
  
CITY           SKY/WX    TMP DP  RH WIND       PRES   REMARKS
SPRINGFIELD    CLOUDY    66  50  56 S13       29.97S                  
JOPLIN         PTCLDY    67  52  58 S14       29.92F                  
               
$$
MOZ032>034-039>042-045>050-055>058-069>072-220800-
...CENTRAL MISSOURI...  
  
CITY           SKY/WX    TMP DP  RH WIND       PRES   REMARKS
COLUMBIA       NOT AVBL                                               
JEFFERSON CITY MOCLDY    70  49  47 SE13      29.96S                  
ROLLA          CLOUDY    65  48  54 S13       30.01R                  
SEDALIA        CLOUDY    67  51  56 S13       29.93R                  
WARRENSBURG    PTCLDY    68  48  49 S13       29.89S                  
               
$$
MOZ051-052-059>065-220800-
...EAST CENTRAL MISSOURI...
  
CITY           SKY/WX    TMP DP  RH WIND       PRES   REMARKS
ST LOUIS INTL  CLOUDY    66  48  52 S8        30.01F                  
                   
$$
MOZ072>076-082>087-097>100-106>115-220800-
...SOUTH CENTRAL AND SOUTHEAST MISSOURI...
  
CITY           SKY/WX    TMP DP  RH WIND       PRES   REMARKS
CAPE GIRARDEAU FAIR      56  47  71 S7        30.07F                  
POPLAR BLUFF   FAIR      60  50  69 S5        30.06F                  
WEST PLAINS    CLOUDY    63  49  60 S8        30.05S                  
                                       
$$